• In Hungary
  • List of Countries
  • For 7 days
  • Water Temperature
  • Satellite Maps
  • Weather Map
  • News
  • Weather Widgets
  • user-avatar
    Login

    Hourly Weather Karatu

    Today, 20 September, Thursday

    Time Temperature Precipitation Wind Pressure Humidity
    00:00 +19°C° 0 mm 4 mps 634 mmHg 54%
    01:00 +19°C° 0 mm 4 mps 634 mmHg 61%
    02:00 +18°C° 0 mm 4 mps 633 mmHg 68%
    03:00 +17°C° 0 mm 4 mps 633 mmHg 71%
    04:00 +17°C° 0 mm 4 mps 633 mmHg 73%
    05:00 +15°C° 0 mm 4 mps 633 mmHg 76%
    06:00 +18°C° 0 mm 4 mps 634 mmHg 68%
    07:00 +19°C° 0 mm 4 mps 635 mmHg 60%
    08:00 +20°C° 0 mm 5 mps 635 mmHg 52%
    09:00 +22°C° 0 mm 5 mps 636 mmHg 45%
    10:00 +25°C° 0 mm 5 mps 636 mmHg 38%
    11:00 +27°C° 0 mm 5 mps 636 mmHg 30%
    12:00 +28°C° 0 mm 5 mps 636 mmHg 28%
    13:00 +29°C° 0 mm 5 mps 635 mmHg 26%
    14:00 +30°C° 0 mm 4 mps 635 mmHg 24%
    15:00 +29°C° 0 mm 5 mps 634 mmHg 25%
    16:00 +28°C° 0 mm 5 mps 634 mmHg 26%
    17:00 +28°C° 0 mm 5 mps 633 mmHg 27%
    18:00 +26°C° 0 mm 5 mps 634 mmHg 33%
    19:00 +25°C° 0 mm 5 mps 634 mmHg 38%
    20:00 +22°C° 0 mm 5 mps 634 mmHg 44%
    21:00 +22°C° 0 mm 5 mps 634 mmHg 50%
    22:00 +21°C° 0 mm 5 mps 634 mmHg 56%
    23:00 +20°C° 0 mm 5 mps 634 mmHg 62%

    Tomorrow, 21 September, Friday

    Time Temperature Precipitation Wind Pressure Humidity
    00:00 +19°C° 0 mm 5 mps 634 mmHg 66%
    01:00 +19°C° 0 mm 5 mps 633 mmHg 70%
    02:00 +17°C° 0 mm 5 mps 633 mmHg 73%
    03:00 +17°C° 0 mm 5 mps 633 mmHg 74%
    04:00 +17°C° 0 mm 4 mps 633 mmHg 75%
    05:00 +17°C° 0 mm 4 mps 633 mmHg 75%
    06:00 +17°C° 0 mm 5 mps 634 mmHg 69%
    07:00 +19°C° 0 mm 5 mps 634 mmHg 63%
    08:00 +21°C° 0 mm 5 mps 635 mmHg 56%
    09:00 +22°C° 0 mm 5 mps 635 mmHg 51%
    10:00 +25°C° 0 mm 5 mps 635 mmHg 45%
    11:00 +26°C° 0 mm 5 mps 636 mmHg 40%
    12:00 +27°C° 0 mm 5 mps 635 mmHg 37%
    13:00 +28°C° 0 mm 5 mps 634 mmHg 33%
    14:00 +29°C° 0 mm 5 mps 634 mmHg 30%
    15:00 +28°C° 0 mm 5 mps 633 mmHg 31%
    16:00 +28°C° 0 mm 5 mps 633 mmHg 32%
    17:00 +27°C° 0 mm 5 mps 633 mmHg 32%
    18:00 +26°C° 0 mm 5 mps 633 mmHg 37%
    19:00 +23°C° 0 mm 5 mps 633 mmHg 41%
    20:00 +22°C° 0 mm 4 mps 634 mmHg 46%
    21:00 +21°C° 0 mm 4 mps 634 mmHg 50%
    22:00 +20°C° 0 mm 4 mps 634 mmHg 55%
    23:00 +20°C° 0 mm 4 mps 634 mmHg 60%

    Day after tomorrow, 22 September, Saturday

    Time Temperature Precipitation Wind Pressure Humidity
    00:00 +19°C° 0 mm 4 mps 633 mmHg 65%
    01:00 +18°C° 0 mm 4 mps 633 mmHg 70%
    02:00 +18°C° 0 mm 4 mps 632 mmHg 75%
    03:00 +18°C° 0 mm 4 mps 632 mmHg 76%
    04:00 +17°C° 0 mm 4 mps 632 mmHg 77%
    05:00 +17°C° 0 mm 4 mps 632 mmHg 78%
    06:00 +18°C° 0 mm 4 mps 633 mmHg 72%
    07:00 +19°C° 0 mm 5 mps 634 mmHg 66%
    08:00 +21°C° 0 mm 5 mps 635 mmHg 60%
    09:00 +22°C° 0 mm 5 mps 635 mmHg 52%
    10:00 +25°C° 0 mm 5 mps 635 mmHg 43%
    11:00 +27°C° 0 mm 5 mps 635 mmHg 35%
    12:00 +28°C° 0 mm 5 mps 635 mmHg 31%
    13:00 +29°C° 0 mm 5 mps 634 mmHg 28%
    14:00 +30°C° 0 mm 5 mps 634 mmHg 24%
    15:00 +29°C° 0 mm 5 mps 633 mmHg 25%
    16:00 +28°C° 0 mm 5 mps 633 mmHg 25%
    17:00 +27°C° 0 mm 5 mps 633 mmHg 26%
    18:00 +26°C° 0 mm 5 mps 633 mmHg 29%
    19:00 +25°C° 0 mm 5 mps 633 mmHg 32%
    20:00 +22°C° 0 mm 4 mps 634 mmHg 35%
    21:00 +21°C° 0 mm 5 mps 634 mmHg 42%
    22:00 +20°C° 0 mm 5 mps 634 mmHg 49%
    23:00 +20°C° 0 mm 5 mps 634 mmHg 56%

    23 September, Sunday

    Time Temperature Precipitation Wind Pressure Humidity
    00:00 +19°C° 0 mm 5 mps 633 mmHg 61%
    01:00 +17°C° 0 mm 5 mps 632 mmHg 67%
    02:00 +18°C° 0 mm 4 mps 632 mmHg 73%
    03:00 +17°C° 0 mm 4 mps 632 mmHg 74%
    04:00 +17°C° 0 mm 4 mps 632 mmHg 75%
    05:00 +17°C° 0 mm 4 mps 633 mmHg 77%
    06:00 +18°C° 0 mm 4 mps 633 mmHg 71%
    07:00 +19°C° 0 mm 5 mps 634 mmHg 65%
    08:00 +20°C° 0 mm 5 mps 635 mmHg 59%
    09:00 +22°C° 0 mm 5 mps 635 mmHg 53%
    10:00 +23°C° 0 mm 5 mps 635 mmHg 47%
    11:00 +26°C° 0 mm 5 mps 635 mmHg 41%
    12:00 +27°C° 0 mm 5 mps 635 mmHg 39%
    13:00 +27°C° 0 mm 5 mps 634 mmHg 37%
    14:00 +28°C° 0 mm 5 mps 633 mmHg 36%
    15:00 +27°C° 0 mm 5 mps 633 mmHg 37%
    16:00 +26°C° 0 mm 5 mps 633 mmHg 39%
    17:00 +26°C° 0 mm 4 mps 633 mmHg 41%
    18:00 +25°C° 0 mm 4 mps 633 mmHg 45%
    19:00 +23°C° 0 mm 4 mps 633 mmHg 48%
    20:00 +22°C° 0 mm 4 mps 634 mmHg 52%
    21:00 +21°C° 0 mm 4 mps 634 mmHg 56%
    22:00 +20°C° 0 mm 4 mps 634 mmHg 59%
    23:00 +19°C° 0 mm 4 mps 634 mmHg 63%

    24 September, Monday

    Time Temperature Precipitation Wind Pressure Humidity
    00:00 +19°C° 0 mm 4 mps 633 mmHg 66%
    01:00 +18°C° 0 mm 4 mps 633 mmHg 69%
    02:00 +17°C° 0 mm 4 mps 632 mmHg 72%
    03:00 +17°C° 0 mm 4 mps 632 mmHg 74%
    04:00 +17°C° 0 mm 4 mps 632 mmHg 76%
    05:00 +15°C° 0 mm 4 mps 633 mmHg 78%
    06:00 +18°C° 0 mm 4 mps 634 mmHg 71%
    07:00 +19°C° 0 mm 4 mps 634 mmHg 64%
    08:00 +20°C° 0 mm 4 mps 635 mmHg 56%
    09:00 +22°C° 0 mm 4 mps 635 mmHg 49%
    10:00 +25°C° 0 mm 4 mps 635 mmHg 42%
    11:00 +27°C° 0 mm 4 mps 635 mmHg 34%
    12:00 +28°C° 0 mm 4 mps 635 mmHg 32%
    13:00 +29°C° 0 mm 4 mps 634 mmHg 29%
    14:00 +30°C° 0 mm 4 mps 633 mmHg 26%
    15:00 +29°C° 0 mm 4 mps 633 mmHg 27%
    16:00 +29°C° 0 mm 4 mps 633 mmHg 28%
    17:00 +28°C° 0 mm 4 mps 633 mmHg 28%
    18:00 +27°C° 0 mm 4 mps 633 mmHg 33%
    19:00 +25°C° 0 mm 4 mps 633 mmHg 37%
    20:00 +23°C° 0 mm 5 mps 634 mmHg 42%
    21:00 +22°C° 0 mm 5 mps 634 mmHg 48%
    22:00 +21°C° 0 mm 5 mps 634 mmHg 55%
    23:00 +20°C° 0 mm 5 mps 633 mmHg 62%

    25 September, Tuesday

    Time Temperature Precipitation Wind Pressure Humidity
    00:00 +20°C° 0 mm 5 mps 633 mmHg 66%
    01:00 +19°C° 0 mm 5 mps 633 mmHg 70%
    02:00 +19°C° 0 mm 5 mps 632 mmHg 73%
    03:00 +17°C° 0 mm 5 mps 632 mmHg 74%
    04:00 +18°C° 0 mm 4 mps 633 mmHg 74%
    05:00 +18°C° 0 mm 4 mps 633 mmHg 75%
    06:00 +19°C° 0 mm 4 mps 634 mmHg 69%
    07:00 +20°C° 0 mm 5 mps 635 mmHg 64%
    08:00 +21°C° 0 mm 5 mps 635 mmHg 58%
    09:00 +23°C° 0 mm 5 mps 635 mmHg 53%
    10:00 +25°C° 0 mm 5 mps 635 mmHg 47%
    11:00 +27°C° 0 mm 5 mps 635 mmHg 42%
    12:00 +27°C° 0 mm 5 mps 635 mmHg 39%
    13:00 +28°C° 0 mm 4 mps 634 mmHg 36%
    14:00 +29°C° 0 mm 4 mps 633 mmHg 33%
    15:00 +29°C° 0 mm 4 mps 633 mmHg 34%
    16:00 +28°C° 0 mm 4 mps 633 mmHg 35%
    17:00 +27°C° 0 mm 5 mps 633 mmHg 36%
    18:00 +26°C° 0 mm 5 mps 633 mmHg 40%
    19:00 +25°C° 0 mm 5 mps 633 mmHg 44%
    20:00 +23°C° 0 mm 5 mps 634 mmHg 48%
    21:00 +22°C° 0 mm 5 mps 633 mmHg 53%
    22:00 +21°C° 0 mm 5 mps 633 mmHg 57%
    23:00 +20°C° 0 mm 5 mps 633 mmHg 61%
    Show more